Location: Gleizolles
(44.4833°N, 6.7667°E)
Time: 01:41:07
(UTC+00:00)

NOAA 19 - Visible Passes

Search period start: 10 December 2022 00:00
Search period end: 20 December 2022 00:00
Orbit: 840 x 861 km, 99.1° (Epoch: 09 December)

Date Brightness Start Highest point End Pass type
(mag) Time Alt. Az. Time Alt. Az. Time Alt. Az.
10 Dec 7.7 19:11:01 11° NNW 19:11:01 11° NNW 19:11:08 10° NNW visible
11 Dec 7.6 18:58:57 11° N 18:58:57 11° N 18:59:09 10° N visible
12 Dec 7.5 18:46:51 11° N 18:46:51 11° N 18:47:07 10° N visible
13 Dec 7.4 18:34:45 12° N 18:34:45 12° N 18:35:04 10° N visible
14 Dec 7.4 18:22:39 11° N 18:22:39 11° N 18:22:58 10° N visible
15 Dec 7.4 18:10:32 11° N 18:10:32 11° N 18:10:48 10° N visible
16 Dec 7.3 17:58:26 11° NNE 17:58:26 11° NNE 17:58:35 10° N visible
18 Dec 7.7 19:16:10 10° NNW 19:16:10 10° NNW 19:16:13 10° NNW visible
19 Dec 7.6 19:04:03 11° N 19:04:03 11° N 19:04:14 10° N visible
